Regional Weather Roundup
Issued by NWS

Home | Current Version | Previous Version | Text Only | Print | Product List | Glossary Off
Versions: 1 2 3 4 5 6 7 8 9 10 11 12 13 14 15 16 17 18 19 20 21 22 23 24 25 26 27 28 29 30 31 32 33 34 35 36 37 38 39 40 41 42 43 44 45 46 47 48 49 50

515
ASUS43 KDTX 250710
RWRMI
MICHIGAN HOURLY REGIONAL WEATHER ROUNDUP
NATIONAL WEATHER SERVICE DETROIT/PONTIAC MI
300 AM EDT SUN SEP 25 2016

NOTE: "FAIR" INDICATES FEW OR NO CLOUDS BELOW 12,000 FEET WITH NO
SIGNIFICANT WEATHER AND/OR OBSTRUCTION TO VISIBILITY.

MIZ047>049-052>055-059>063-066>070-074>076-081>083-250800-
SOUTHEAST LOWER MICHIGAN

CITY           SKY/WX    TMP DP  RH WIND       PRES   REMARKS
ADRIAN         CLEAR     54  50  86 E6        30.22F
ALMA           CLEAR     47  47  99 CALM      30.23F
ANN ARBOR      CLEAR     49  46  90 CALM      30.22S
BAD AXE        CLEAR     41  41  99 CALM      30.25F
CARO           CLEAR     43  43  99 CALM      30.23F
DETROIT CITY   CLEAR     53  47  79 N3        30.23S
DETROIT        CLEAR     54  47  77 NE5       30.22F
FLINT          CLEAR     49  46  90 E3        30.23F
GROSSE ILE     CLEAR     56  47  71 NE7       30.21F
HILLSDALE      CLEAR     54  48  82 E6        30.21S HAZE
HOWELL         CLEAR     49  47  92 CALM      30.22F

CITY           SKY/WX    TMP DP  RH WIND       PRES   REMARKS
JACKSON        CLEAR     53  48  83 SE5       30.21F
LAMBERTVILLE   CLEAR     56  49  78 NE3       30.21F
LANSING        CLEAR     50  45  83 E5        30.22F
LAPEER         FAIR      42  42  98 CALM      30.23F
MASON          CLEAR     51  47  86 SE5       30.22S
MONROE         CLEAR     54  49  84 NE3       30.21F
MT. CLEMENS    CLEAR     48  45  90 N6        30.21S
PONTIAC        CLEAR     48  44  86 CALM      30.22F
PORT HOPE        N/A     61  50  67 E12       30.23F
PORT HURON     CLEAR     45  45 100 CALM      30.24S
TRI CITIES     CLEAR     50  46  86 E6        30.24F
MIDLAND        FAIR      44  44 100 CALM      30.23S
TROY           CLEAR     54  44  68 CALM      30.25S
SAGINAW HB     CLEAR     46  45  93 CALM      30.24R
$$
MIZ043>046-050>051-056>058-064>065-071>073-077>080-250800-
SOUTHWEST LOWER MICHIGAN

CITY           SKY/WX    TMP DP  RH WIND       PRES   REMARKS
BATTLE CREEK   CLEAR     57  53  86 E6        30.20S
BENTON HARBOR  CLEAR     62  56  80 SE8       30.15F
BIG RAPIDS     CLEAR     51  47  84 CALM      30.22F
COLDWATER      CLEAR     57  53  88 SE5       30.20S
FREMONT        FAIR      53  47  80 E5        30.20S
HOLLAND        CLEAR     56  52  86 E8        30.18S
GRAND RAPIDS   CLEAR     53  49  86 E8        30.20F
IONIA          FAIR      50  47  88 E5        30.21F
KALAMAZOO      CLEAR     58  52  80 CALM      30.19S
LUDINGTON      CLEAR     54  48  81 SE8       30.18S
MARSHALL       CLEAR     55  52  92 E5        30.21S
MOUNT PLEASANT FOG       45  44  97 CALM      30.23S VSB 3/4
MUSKEGON       CLEAR     55  50  83 E9        30.18F
SOUTH HAVEN    CLEAR     60  57  91 E5        30.17R
$$
MIZ016>042-250800-
NORTHERN LOWER MICHIGAN

CITY           SKY/WX    TMP DP  RH WIND       PRES   REMARKS
ALPENA         CLEAR     43  40  89 CALM      30.25F
BEAVER ISLAND  CLEAR     55  49  81 SE7       30.20S
BELLAIRE       CLEAR     47  45  93 CALM      30.22S
CADILLAC       CLEAR     49  44  83 E6        30.21F
CHARLEVOIX     CLEAR     51  45  80 SE5       30.24S
FRANKFORT      PTCLDY    55  47  75 E7        30.19S
GAYLORD        CLEAR     48  42  80 SE5       30.23F
GRAYLING       CLEAR     40  39  96 CALM      30.25S
HARBOR SPRINGS CLOUDY    49  44  84 NE3       30.22S
HOUGHTON LAKE  CLEAR     42  40  92 E3        30.24F
MANISTEE       CLEAR     50  47  89 E7        30.19S
OSCODA         CLEAR     42  41  96 CALM      30.24S
PELLSTON       PTCLDY    41  39  93 CALM      30.23F
ROGERS CITY    CLEAR     49  43  82 CALM      30.25S
TRAVERSE CITY  CLEAR     54  46  74 VRB6      30.19S
$$
MIZ007>008-015-250800-
EASTERN UPPER MICHIGAN

CITY           SKY/WX    TMP DP  RH WIND       PRES   REMARKS
KINROSS        MOCLDY    51  45  79 SE3       30.22F
MACKINAC ISLAN CLEAR     55  46  71 SE10      30.22F
NEWBERRY       CLOUDY    47  46  97 SE3       30.19F
S. S. MARIE    CLOUDY    53  48  83 CALM      30.22F
MUNISING         N/A     51  47  86 CALM      30.16F
$$
MIZ004>006-011>014-085-250800-
CENTRAL UPPER MICHIGAN

CITY           SKY/WX    TMP DP  RH WIND       PRES   REMARKS
MANISTIQUE     CLEAR     60  55  81 SE10      30.18S
ESCANABA       PTCLDY    63  57  81 SE6       30.15F
MENOMINEE      CLOUDY    56  54  93 CALM      30.15F
SAWYER-GWINN   PTCLDY    51  48  89 S6        30.16F
$$
MIZ001>003-009>011-084-250800-
WESTERN UPPER MICHIGAN

CITY           SKY/WX    TMP DP  RH WIND       PRES   REMARKS
IRON MOUNTAIN  MOCLDY    54  49  83 CALM      30.14F
HOUGHTON       MOCLDY    55  50  83 SE8       30.11S
COPPER HARBOR    N/A     61  53  75 SW12G25   30.10S
IRONWOOD       CLOUDY    59  54  83 E5        30.06F
$$

ABBREVIATIONS USED IN REMARKS
   TC - TEMPERATURE IN CELSIUS
  WCI - WIND CHILL INDEX
   HX - HEAT INDEX
  VSB - VISIBILITY





USA.gov is the U.S. government's official web portal to all federal, state and local government web resources and services.